If you wish to contribute or participate in the discussions about articles you are invited to join SKYbrary as a registered user

 Actions

Venezia / Tessera - Marco Polo Airport

From SKYbrary Wiki

LIPZ
Airport
ICAO: LIPZ – IATA: VCE
Summary
Name Venezia / Tessera - Marco Polo Airport
Region Europe
Territory Italy IT.gif
Location Tessera, Veneto
Serving Venice
Elevation 2.134 m
7 ft
7 ft2.134 m
Type large airport
Coordinates 45° 30' 19.00" N, 12° 21' 7.00" E
Runways
Designator Length Width Surface ROPS
04L/22R 2780 m9,120.735 ft
45 m147.638 ft
ASP yes/yes
04R/22L 3300 m10,826.772 ft
45 m147.638 ft
ASP yes/yes


METAR
Observation LIPZ 070920Z 08008KT CAVOK 17/M01 Q1029 NOSIG
Station Venezia / Tessera
Date/Time 07 April 2020 09:20:00
Wind direction 80°
Wind speed 08 kts
Lowest cloud amount clouds and visibility OK
Temperature 17°C
Dew point
Humidity 29%
QNH 1029 hPa
Weather condition n/a

Venice Marco Polo Airport is the international airport of Venice, Italy. It is located on the mainland 4.3 nautical miles north of the city in Tessera.

Maps

Terrain

Loading map...

Airport Layout

Loading map...


Accidents & Serious Incidents at or in vicinity of LIPZ

None on SKYbrary